Regional Weather Roundup
Issued by NWS Charleston, SC

Home | Current Version | Previous Version | Text Only | Print | Product List | Glossary On
Versions: 1 2 3 4 5 6 7 8 9 10 11 12 13 14 15 16 17 18 19 20 21 22 23 24 25 26 27 28 29 30 31 32 33 34 35 36 37 38 39 40 41 42 43 44 45 46 47 48 49 50
000
ASUS42 KCHS 221425
RWRCHS

REGIONAL WEATHER ROUNDUP
NATIONAL WEATHER SERVICE CHARLESTON SC
900 AM EST SAT NOV 22 2014

NOTE: "FAIR" INDICATES FEW OR NO CLOUDS BELOW 12,000 FEET WITH NO
SIGNIFICANT WEATHER AND/OR OBSTRUCTIONS TO VISIBILITY.

NOT ALL STATIONS ARE QUALITY CONTROLLED BY THE NATIONAL
WEATHER SERVICE. USE DATA WITH CAUTION...ESPECIALLY
DEWPOINT OBSERVATIONS.

SCZ027-030-031-034>040-042>050-221500-
...SOUTHEAST SOUTH CAROLINA...

CITY           SKY/WX    TMP DP  RH WIND       PRES   REMARKS
N CHARLESTON   SUNNY     48  36  63 NE8       30.51R
WATERFRONT PRK   N/A     52 N/A N/A N10         N/A
MOUNT PLEASANT FAIR      48  37  66 NE5       30.51S
JOHNS ISLAND   SUNNY     54  43  66 NE10      30.50S
PINOPOLIS        N/A     41  34  75 E9        30.45R
MONCKS CORNER  FAIR      46  37  71 NE8       30.53R
SUMMERVILLE    FAIR      46  37  71 N7        30.53S
BEAUFORT MCAS  SUNNY     52  39  61 NE10      30.48S
BEAUFORT ARPT  FAIR      52  43  71 NE13      30.48R
HILTON HEAD IS SUNNY     54  45  71 N14       30.47S
WALTERBORO     SUNNY     48  34  57 NE8       30.52S
ALLENDALE      FAIR      46  32  57 VRB5      30.51R

...SOUTHERN MIDLANDS AND PEE DEE...

CITY           SKY/WX    TMP DP  RH WIND       PRES   REMARKS
GEORGETOWN     NOT AVBL
KINGSTREE      NOT AVBL
ORANGEBURG     SUNNY     41  25  53 NE8       30.53S
BARNWELL       FAIR      45  30  57 E6        30.52R
AIKEN          FAIR      41  27  56 NE5       30.55S
MANNING        NOT AVBL
COLUMBIA       SUNNY     39  21  48 NE6       30.55S WCI  35
SUMTER         SUNNY     38  22  52 NE7       30.54R WCI  32
FLORENCE       SUNNY     39  20  46 NE6       30.57R WCI  35
MYRTLE BEACH   SUNNY     43  30  61 NE9       30.55R
N MYRTLE BEACH SUNNY     43  29  57 NE9       30.54S

$$

GAZ063-065-086>088-099>101-113>116-118-119-134>141-150-221500-
...SOUTHEAST GEORGIA...

CITY           SKY/WX    TMP DP  RH WIND       PRES   REMARKS
SAVANNAH ARPT  MOSUNNY   54  38  54 NE8       30.46R
HUNTER AAF     SUNNY     55  42  63 NE9       30.43R
FORT STEWART   SUNNY     53  41  62 NE9       30.43R
STATESBORO     NOT AVBL
SYLVANIA       SUNNY     51  37  58 E7        30.50R
CLAXTON        FAIR      52  36  54 E7        30.47R

...CSRA...CENTRAL AND FAR SOUTHEAST GEORGIA...

CITY           SKY/WX    TMP DP  RH WIND       PRES   REMARKS
THOMSON        MOSUNNY   43  35  72 NE5       30.55S
AUGUSTA-BUSH   MOSUNNY   41  29  62 NW3       30.52R
AUGUSTA-DANIEL MOSUNNY   44  24  45 NE6       30.52R
SWAINSBORO     FAIR      48  36  61 E8        30.48R
VIDALIA        SUNNY     48  37  66 NE10      30.46R
HAZLEHURST     PTSUNNY   50  42  73 E8        30.42S
ALMA           CLOUDY    53  42  66 NE9G16    30.42R
WAYCROSS       PTSUNNY   59  50  73 E10G18    30.41R
JESUP          FAIR      57  48  72 E12G18    30.42S
BAXLEY         PTSUNNY   54  43  66 E10       30.43R
BRUNSWICK        N/A     63  52  67 NE15G21   30.40R
SAINT SIMONS   CLOUDY    61  54  77 NE16      30.39R

$$

SCZ027-028-034-036>038-045-046-048>050-GAZ119-141-221500-
...LAKE AND SUPPLEMENTAL COASTAL OBSERVATIONS...

STATION/POSITION TIME  TEMP    WIND        PRES    WAVE   SWELL
                       AIR SEA DIR/SP/G            HT/PER HT/PER/DIR
                 (UTC) (F)     (DEG/KT/KT) (MB)    (FT/S) (FT/S/D)
UPR LAKE MARION  NOT AVBL
WINYAH BAY       1400   45      20/  6     1033.0S
LAKE MURRAY      1400   38      30/  3/  4 1033.9S
ACE BASIN NERRS  1400   49      30/  4     1032.0S
FORT PULASKI     1400   54      40/ 20/ 24 1031.1R
SAPELO ISLAND    NOT AVBL

$$

ANZ835-935-AMZ111-154-330-350-352-354-370-450-454-472-221500-
...C-MAN AND BUOY OBSERVATIONS...

STATION/POSITION TIME  TEMP    WIND        PRES    WAVE   SWELL
                       AIR SEA DIR/SP/G            HT/PER HT/PER/DIR
                 (UTC) (F)     (DEG/KT/KT) (MB)    (FT/S) (FT/S/D)
FOLLY BEACH CMAN 1400   52      30/ 14/ 15 1033.1R
BUOY 41004       1400   62 75   50/ 14/ 17 1031.4R   5/ 6   2/ 7
BUOY 41008       1400   65 64   60/ 21/ 27 1028.5R   7/ 7
CAPERS NEARSHORE 1300   51      40/ 16/ 17   N/A
FRIPP NEARSHORE  NOT AVBL


STATION/POSITION TIME  TEMP    WIND        PRES    WAVE   SWELL
                       AIR SEA DIR/SP/G            HT/PER HT/PER/DIR
                 (UTC) (F)     (DEG/KT/KT) (MB)    (FT/S) (FT/S/D)
5E ST. MARYS GA  1400      62                N/A     6/ 7
FRYING PAN BUOY  1400   57 63   50/ 10/ 14 1033.8R   3/ 5   3/ 60/ 5
BUOY 41025       1400   53     350/ 10/ 14 1034.7R   4/10   3/ 50/10
CAPE LOOKOUT NC  1400   45      20/ 13/ 15 1034.7R
BUOY 41002       1316   63 73   60/ 16/ 21 1031.7R   6/ 8   3/ 10/ 8
BUOY 41010       1400   72 78   70/ 25/ 31 1026.2S   9/ 7
ST AUGUSTINE FL  1400   68     100/ 12/ 14 1027.2R


$$



USA.gov is the U.S. government's official web portal to all federal, state and local government web resources and services.